Meteo Giornale » Osservazioni meteo Gambia » Banjul-Yundum
ore: 16:00 - Osservazioni Meteo Banjul-Yundum
Lat. 13° 21' N Lon. 16° 48' W Alt. 36 metri s.l.m.
31 °C
Molto Nuvoloso
Temp. 24 Ore
27 °C
32 °C
Sud-Ovest
14.8 Km/h
Dew point 26 °C
Umidità 74 %
Visibilità 10 Km
Il sole sorge alle ore 06:55
Il sole tramonta alle ore 19:18
| Data e Ora | Cielo e Fenomeni | T °C | DP °C | Um. % | Pres. hPa | Vis. km | Vento km/h | |
|---|---|---|---|---|---|---|---|---|
| Oggi h: 16:00 | Molto Nuvoloso | 31 | 26 | 74 | 1010 | 10 | SO 14.8 | |
| Oggi h: 15:00 | Molto Nuvoloso | 32 | 27 | 74 | 1010 | 10 | SO 20.3 | |
| Oggi h: 14:00 | Molto Nuvoloso | 32 | 27 | 74 | 1011 | 10 | O/SO 13 | |
| Oggi h: 13:00 | Molto Nuvoloso | 32 | 26 | 70 | 1012 | 10 | O 16.7 | |
| Oggi h: 12:00 | Molto Nuvoloso | 32 | 26 | 70 | 1012 | 10 | O/SO 14.8 | |
| Oggi h: 11:00 | Molto Nuvoloso | 32 | 27 | 74 | 1012 | 10 | O/SO 11.1 | |
| Oggi h: 10:00 | Molto Nuvoloso | 31 | 28 | 84 | 1012 | 10 | SO 13 | |
| Oggi h: 09:00 | Nuvoloso | 30 | 28 | 89 | 1012 | 10 | SO 9.3 | |
| Oggi h: 08:00 | Nuvoloso | 28 | 28 | 100 | 1011 | 10 | N 5.5 | |
| Oggi h: 07:00 | Nuvoloso | 27 | 27 | 100 | 1011 | 10 | SO 7.4 | |
| Oggi h: 06:00 | Nuvoloso | 27 | 27 | 100 | 1011 | 10 | N 5.5 | |
| Oggi h: 05:00 | Nuvoloso | 27 | 27 | 100 | 1010 | 10 | N 5.5 | |
| Oggi h: 04:00 | Nuvoloso | 27 | 27 | 100 | 1011 | 10 | N 5.5 | |
| Oggi h: 02:00 | Nuvoloso | 27 | 27 | 100 | 1012 | 10 | N 5.5 | |
| Oggi h: 01:00 | Nuvoloso | 27 | 27 | 100 | 1012 | 10 | N 3.7 | |
| Oggi h: 00:00 | Nuvoloso | 27 | 27 | 100 | 1013 | 10 | N 5.5 | |
| Ieri h: 23:00 | Nuvoloso | 27 | 27 | 100 | 1013 | 10 | S/SO 7.4 | |
| Ieri h: 22:00 | Nuvoloso | 28 | 27 | 94 | 1012 | 10 | SO 7.4 | |
| Ieri h: 21:00 | Nuvoloso | 28 | 26 | 88 | 1011 | 10 | SO 7.4 | |
| Ieri h: 20:00 | Nuvoloso | 29 | 26 | 83 | 1011 | 10 | SO 11.1 | |
| Ieri h: 19:00 | Nuvoloso | 30 | 26 | 79 | 1011 | 10 | SO 13 | |
| Ieri h: 18:00 | Nuvoloso | 32 | 26 | 70 | 1010 | 10 | O/SO 13 | |
| Ieri h: 17:00 | Nuvoloso | 32 | 26 | 70 | 1010 | 10 | O/SO 11.1 | |



